Temp
-4 -4 -3 -2 -1 -2 -2 -2 -2 -3 -3 -2 -3 -5 -5 -5 -5 -5 -4 -4 -3 -3 -3 -3 -3 -3 -3 -3 -2 -2 -1 -3 -4 -4 -4 -3 -3 -2 -2 -1 -3 -3 -2 1
-4 -4 -3 -2 -2 -1 -2 -2 -2 -3 -3 -3 -3 -4 -4 -5 -4 -3 -3 -4 -3 -3 -3 -3 -3 -3 -3 -3 -2 -2 -2 -3 -4 -4 -4 -4 -4 -3 -2 -2 -2 -3 1 1
-3 -4 -4 -3 -2 -2 -1 -2 -2 -3 -2 -2 -2 -2 -3 -4 -4 -4 -3 -3 -3 -3 -3 -3 -3 -3 -3 -3 -2 -2 -2 -2 -2 -1 -2 -3 -4 -2 -2 -3 -3 -2 -1 -1
-3 -3 -4 -3 -2 -2 -2 -2 -2 -2 -3 -3 -3 -3 -3 -3 -3 -3 -3 -4 -3 -3 -3 -3 -3 -3 -3 -4 -3 -3 -2 -2 -3 -3 -3 -3 -3 -3 -3 -3 -3 -2 -1 -0
-3 -3 -3 -3 -3 -2 -2 -2 -2 -2 -3 -3 -4 -4 -4 -3 -3 -3 -3 -3 -3 -3 -3 -3 -3 -3 -3 -3 -3 -3 -3 -3 -3 -3 -3 -4 -3 -3 -3 -3 -4 -3 -2 -0
-4 -4 -4 -4 -3 -2 -3 -3 -2 -3 -3 -3 -3 -3 -4 -4 -4 -4 -3 -3 -3 -3 -3 -3 -4 -4 -3 -3 -3 -3 -3 -3 -3 -3 -3 -3 -2 -2 -2 -2 -2 -2 -2 -1
-4 -4 -4 -4 -3 -3 -3 -3 -3 -3 -3 -3 -3 -4 -4 -4 -4 -3 -4 -3 -4 -4 -4 -4 -4 -4 -3 -4 -4 -4 -4 -4 -3 -4 -3 -2 -2 -2 -2 -2 -2 -2 -1 -1
-5 -5 -5 -5 -4 -4 -3 -3 -3 -3 -3 -3 -3 -3 -4 -4 -4 -4 -4 -4 -4 -4 -4 -4 -4 -4 -4 -5 -5 -5 -4 -4 -4 -4 -3 -2 -2 -2 -2 -2 -2 -1 -1 -1
-5 -6 -6 -5 -5 -4 -4 -4 -4 -4 -3 -3 -3 -3 -3 -4 -4 -4 -4 -4 -4 -4 -4 -4 -4 -4 -4 -4 -4 -4 -4 -4 -4 -5 -4 -2 -2 -2 -2 -2 -2 -2 -1 -2
-5 -6 -7 -6 -5 -5 -5 -5 -4 -4 -4 -4 -3 -3 -3 -3 -4 -4 -4 -4 -4 -4 -4 -4 -4 -4 -4 -4 -4 -4 -5 -4 -5 -4 -4 -3 -3 -2 -3 -2 -2 -2 -2 -1
-5 -6 -7 -8 -6 -6 -5 -5 -5 -5 -4 -4 -3 -3 -3 -3 -4 -4 -4 -4 -4 -4 -4 -4 -4 -4 -4 -4 -4 -4 -4 -4 -5 -5 -4 -3 -3 -3 -3 -3 -2 -2 -2 -2
-5 -6 -7 -7 -7 -7 -6 -6 -5 -5 -5 -4 -4 -3 -3 -3 -4 -4 -4 -4 -4 -4 -4 -4 -4 -4 -4 -4 -4 -4 -4 -4 -4 -4 -4 -3 -3 -3 -3 -3 -2 -2 -2 -2
-5 -6 -7 -8 -8 -8 -7 -6 -6 -6 -5 -4 -3 -3 -4 -3 -4 -4 -4 -5 -5 -5 -5 -5 -4 -5 -5 -5 -5 -4 -4 -4 -4 -4 -3 -3 -4 -3 -3 -3 -3 -3 -2 -2
-6 -6 -7 -8 -8 -8 -8 -7 -7 -6 -6 -5 -4 -4 -4 -4 -4 -4 -5 -5 -5 -5 -6 -5 -5 -5 -5 -5 -4 -4 -4 -4 -4 -4 -3 -3 -3 -4 -3 -3 -3 -3 -2 -2
-7 -7 -8 -9 -8 -8 -7 -7 -7 -7 -7 -6 -5 -5 -5 -5 -5 -5 -6 -6 -6 -5 -5 -5 -5 -5 -6 -5 -5 -3 -3 -3 -4 -4 -3 -3 -4 -4 -4 -3 -3 -3 -2 -2
-7 -8 -9 -9 -9 -8 -7 -7 -7 -7 -8 -8 -7 -6 -6 -6 -5 -6 -6 -6 -6 -5 -5 -5 -5 -5 -5 -5 -5 -3 -3 -3 -4 -4 -4 -4 -4 -4 -4 -3 -3 -3 -2 -2
-7 -8 -9 -9 -9 -8 -8 -9 -10 -10 -10 -9 -9 -7 -6 -7 -7 -6 -6 -6 -6 -6 -5 -5 -5 -5 -5 -5 -5 -3 -3 -4 -4 -4 -4 -4 -4 -4 -4 -4 -4 -3 -3 -2
-8 -9 -10 -9 -8 -8 -8 -9 -11 -11 -11 -10 -9 -7 -6 -6 -6 -6 -5 -5 -6 -5 -5 -5 -5 -5 -5 -6 -5 -4 -4 -4 -4 -4 -4 -4 -4 -4 -4 -4 -4 -4 -4 -3
-8 -10 -10 -9 -8 -8 -9 -9 -10 -11 -11 -10 -8 -7 -6 -6 -5 -6 -5 -5 -5 -5 -5 -5 -6 -6 -5 -5 -5 -5 -5 -5 -4 -5 -5 -4 -4 -4 -5 -5 -4 -4 -4 -3
-9 -10 -10 -8 -8 -9 -8 -9 -10 -10 -9 -9 -7 -7 -6 -6 -5 -6 -5 -5 -5 -6 -6 -6 -6 -5 -5 -5 -6 -5 -5 -6 -5 -6 -6 -6 -5 -5 -5 -5 -5 -4 -4 -4
-9 -10 -9 -8 -9 -9 -9 -9 -9 -9 -8 -7 -6 -6 -6 -6 -5 -6 -5 -5 -6 -6 -6 -6 -6 -5 -4 -5 -5 -6 -6 -6 -6 -6 -5 -5 -5 -5 -4 -4 -4 -5 -5 -4
-9 -10 -9 -9 -9 -9 -9 -8 -8 -8 -8 -7 -6 -6 -6 -6 -6 -6 -6 -5 -5 -6 -6 -6 -6 -3 -4 -4 -6 -6 -6 -6 -5 -5 -4 -4 -4 -4 -4 -3 -3 -3 -4 -4
-10 -10 -10 -9 -9 -10 -9 -8 -8 -7 -7 -7 -6 -6 -6 -7 -7 -6 -5 -6 -5 -6 -6 -5 -4 -4 -4 -5 -5 -5 -5 -5 -5 -5 -5 -5 -5 -5 -5 -4 -3 -2 -2 -3
-10 -10 -9 -9 -9 -9 -9 -8 -7 -7 -7 -7 -6 -7 -6 -6 -6 -6 -6 -6 -6 -6 -6 -5 -5 -5 -5 -5 -5 -5 -5 -5 -6 -6 -5 -5 -5 -5 -5 -4 -4 -3 -3 -3
-11 -10 -9 -8 -8 -9 -9 -9 -8 -8 -7 -7 -7 -7 -7 -7 -6 -6 -6 -6 -6 -6 -5 -5 -5 -5 -5 -5 -5 -5 -5 -6 -6 -6 -6 -5 -5 -5 -4 -4 -4 -4 -4 -4
-11 -10 -9 -8 -8 -9 -8 -8 -8 -8 -8 -8 -7 -7 -7 -7 -6 -7 -6 -6 -6 -6 -6 -5 -5 -5 -5 -5 -5 -5 -5 -5 -5 -5 -5 -6 -6 -5 -5 -4 -4 -4 -4 -4
-10 -10 -9 -9 -9 -9 -8 -9 -8 -8 -8 -8 -7 -7 -8 -8 -7 -7 -6 -6 -5 -5 -5 -6 -5 -6 -6 -6 -6 -6 -6 -6 -6 -5 -5 -5 -5 -5 -5 -5 -4 -4 -4 -4
Height
3041 3038 3031 3029 3026 3024 3021 3019 3015 3013 3012 3009 3003 3002 3002 3003 3003 3003 3004 3006 3006 3008 3010 3013 3015 3018 3019 3022 3025 3027 3028 3030 3036 3038 3038 3039 3041 3043 3044 3043 3046 3045 3045 3047
3041 3038 3033 3029 3027 3025 3022 3019 3018 3015 3014 3013 3010 3009 3008 3007 3007 3007 3008 3009 3010 3011 3013 3017 3017 3019 3021 3023 3025 3027 3028 3030 3034 3039 3041 3039 3039 3039 3040 3042 3043 3043 3043 3046
3043 3039 3032 3030 3027 3025 3023 3021 3018 3017 3015 3014 3014 3012 3012 3011 3011 3010 3011 3012 3014 3015 3016 3016 3018 3019 3022 3023 3025 3026 3028 3028 3030 3032 3031 3032 3033 3034 3037 3039 3041 3042 3043 3043
3044 3040 3035 3031 3028 3026 3025 3022 3020 3017 3016 3015 3014 3014 3014 3014 3013 3014 3014 3014 3015 3017 3018 3018 3019 3020 3021 3023 3025 3026 3028 3029 3031 3031 3031 3031 3031 3031 3032 3034 3038 3040 3040 3041
3042 3040 3036 3031 3028 3026 3026 3025 3023 3021 3019 3017 3016 3015 3015 3015 3016 3016 3016 3016 3016 3017 3017 3018 3018 3020 3022 3023 3025 3026 3028 3029 3030 3030 3030 3030 3030 3030 3030 3032 3034 3035 3037 3039
3042 3039 3036 3031 3027 3026 3025 3025 3024 3023 3022 3020 3019 3017 3017 3017 3016 3017 3017 3018 3017 3017 3017 3017 3018 3020 3021 3022 3023 3025 3028 3028 3029 3028 3027 3027 3027 3025 3026 3028 3030 3033 3035 3037
3040 3040 3037 3033 3028 3025 3025 3025 3024 3023 3022 3021 3020 3019 3019 3018 3017 3017 3017 3017 3018 3019 3018 3019 3020 3021 3021 3021 3022 3023 3025 3027 3028 3028 3027 3027 3025 3024 3024 3024 3026 3029 3032 3034
3038 3038 3036 3033 3029 3025 3023 3023 3024 3023 3022 3021 3021 3019 3019 3019 3019 3018 3018 3018 3019 3019 3020 3021 3022 3023 3023 3023 3023 3023 3025 3026 3027 3028 3027 3026 3024 3024 3024 3025 3027 3027 3030 3032
3035 3034 3033 3031 3029 3025 3023 3021 3021 3021 3021 3020 3019 3019 3019 3019 3019 3019 3019 3020 3020 3020 3021 3022 3022 3023 3023 3023 3023 3024 3025 3026 3028 3027 3027 3024 3024 3024 3025 3026 3027 3028 3029 3030
3030 3029 3028 3028 3026 3024 3022 3020 3019 3017 3017 3017 3017 3017 3017 3017 3018 3018 3018 3019 3019 3021 3021 3021 3021 3022 3022 3023 3023 3023 3024 3025 3026 3027 3026 3023 3023 3024 3025 3028 3031 3027 3028 3028
3029 3025 3023 3023 3022 3021 3019 3017 3016 3015 3013 3012 3012 3013 3014 3014 3016 3016 3017 3019 3018 3019 3020 3020 3020 3020 3020 3021 3021 3021 3022 3024 3024 3025 3025 3024 3021 3024 3026 3026 3025 3025 3026 3026
3026 3023 3020 3018 3016 3016 3015 3014 3012 3010 3008 3009 3007 3007 3008 3010 3010 3013 3014 3015 3015 3016 3017 3018 3018 3018 3018 3019 3019 3019 3022 3021 3022 3023 3021 3020 3020 3022 3022 3023 3023 3024 3024 3023
3022 3019 3017 3015 3011 3010 3010 3008 3006 3005 3001 3001 2999 3000 3001 3002 3005 3007 3011 3012 3013 3014 3015 3016 3017 3017 3017 3017 3016 3017 3016 3018 3018 3019 3018 3018 3019 3019 3020 3020 3020 3021 3021 3020
3016 3014 3011 3009 3007 3004 3003 3002 3000 2998 2996 2992 2992 2991 2993 2995 2997 3001 3005 3008 3010 3011 3012 3013 3014 3015 3014 3013 3014 3013 3014 3014 3014 3014 3016 3016 3016 3016 3017 3017 3017 3017 3018 3017
3007 3008 3005 3003 3001 2999 2997 2994 2992 2990 2992 2985 2985 2985 2986 2989 2991 2994 2999 3002 3006 3008 3010 3010 3011 3011 3012 3010 3009 3007 3009 3009 3010 3010 3011 3011 3012 3012 3012 3013 3013 3013 3015 3015
3000 2999 2999 2997 2995 2992 2990 2987 2984 2982 2979 2977 2976 2976 2978 2981 2985 2989 2994 2998 3001 3003 3005 3006 3006 3008 3009 3005 3002 3003 3004 3004 3004 3006 3006 3006 3006 3007 3007 3007 3008 3009 3010 3011
2993 2992 2993 2991 2989 2986 2984 2981 2976 2973 2973 2972 2973 2973 2973 2975 2980 2985 2989 2993 2996 2999 3001 3000 3002 3003 3003 2998 2994 2999 3000 2999 2999 2999 3000 3001 3001 3002 3002 3002 3003 3003 3005 3006
2985 2984 2986 2986 2984 2980 2975 2973 2971 2971 2971 2972 2972 2971 2972 2973 2977 2981 2985 2987 2990 2993 2995 2995 2997 2997 2996 2989 2987 2991 2992 2992 2990 2991 2992 2993 2994 2995 2995 2996 2997 2998 2999 3000
2978 2978 2980 2981 2979 2977 2974 2972 2972 2972 2974 2972 2970 2970 2970 2971 2973 2978 2982 2984 2986 2989 2989 2990 2992 2987 2984 2982 2984 2985 2985 2985 2985 2985 2985 2985 2986 2987 2988 2988 2990 2992 2993 2993
2971 2973 2976 2976 2976 2975 2974 2973 2973 2972 2971 2969 2968 2968 2968 2969 2971 2974 2978 2979 2982 2983 2984 2984 2981 2977 2978 2978 2978 2979 2980 2980 2980 2980 2980 2979 2979 2980 2981 2981 2983 2985 2986 2987
2966 2968 2971 2973 2973 2974 2972 2972 2972 2971 2969 2967 2966 2967 2967 2968 2968 2970 2975 2975 2978 2978 2979 2979 2975 2969 2969 2970 2971 2972 2973 2972 2972 2972 2972 2973 2973 2973 2973 2973 2974 2976 2978 2980
2963 2965 2967 2969 2971 2971 2971 2969 2969 2967 2967 2965 2965 2965 2965 2967 2967 2970 2973 2974 2975 2974 2975 2974 2968 2966 2966 2966 2967 2968 2968 2967 2967 2967 2967 2966 2966 2965 2965 2965 2965 2966 2968 2971
2960 2963 2966 2967 2968 2966 2965 2964 2965 2964 2964 2964 2964 2964 2965 2966 2968 2970 2971 2971 2971 2971 2969 2967 2964 2964 2963 2964 2964 2964 2965 2964 2963 2961 2959 2959 2959 2960 2959 2958 2957 2958 2960 2963
2957 2961 2962 2961 2959 2959 2958 2960 2961 2963 2963 2963 2962 2964 2965 2965 2967 2968 2968 2969 2968 2967 2965 2962 2962 2961 2961 2962 2962 2962 2962 2961 2958 2956 2955 2955 2955 2955 2955 2953 2953 2953 2954 2956
2955 2958 2956 2954 2954 2955 2956 2957 2959 2960 2961 2961 2962 2963 2964 2964 2966 2966 2967 2966 2964 2962 2961 2961 2961 2961 2961 2961 2961 2962 2961 2960 2958 2956 2954 2953 2952 2951 2950 2950 2951 2951 2951 2952
2953 2953 2951 2951 2952 2953 2954 2955 2956 2957 2958 2959 2960 2960 2961 2962 2963 2963 2962 2962 2961 2961 2960 2960 2960 2961 2961 2961 2961 2961 2960 2959 2958 2956 2955 2953 2951 2949 2948 2947 2948 2948 2948 2948
2949 2948 2948 2949 2950 2950 2951 2951 2953 2954 2956 2957 2957 2957 2957 2958 2957 2957 2957 2957 2959 2959 2959 2959 2959 2959 2959 2959 2959 2959 2959 2958 2957 2955 2954 2953 2951 2950 2948 2946 2945 2945 2945 2945
Wind_Speed
22 25 16 14 11 14 16 14 14 10 16 16 20 19 15 13 14 16 15 14 20 18 17 12 7 10 9 15 10 8 5 8 10 8 6 10 13 11 11 4 4 3 2 2
21 25 18 14 12 10 14 14 11 7 5 12 16 14 13 13 7 8 11 10 14 19 16 6 11 9 13 14 11 7 7 6 7 3 7 13 15 17 17 10 3 5 3 4
20 24 21 13 13 9 13 12 8 9 8 8 8 11 11 11 10 9 9 11 11 11 6 6 10 11 10 13 11 6 7 8 5 4 2 5 12 18 20 17 7 5 6 4
20 22 24 14 12 9 10 11 12 11 11 11 8 7 7 4 8 9 5 7 7 6 4 2 10 10 7 11 12 11 8 6 4 3 2 2 4 9 18 24 21 7 5 9
17 19 20 18 10 9 8 6 6 10 13 12 10 8 7 6 5 2 7 10 8 4 4 3 11 8 6 7 14 12 8 4 2 2 3 7 9 9 9 14 20 21 17 11
18 17 18 18 12 8 5 4 2 2 4 4 6 10 10 8 5 5 5 4 1 1 1 3 11 6 7 7 7 17 11 7 2 2 3 5 7 7 15 14 11 14 14 8
19 18 17 16 16 8 5 5 3 2 1 1 5 8 8 9 8 5 4 3 3 7 9 10 9 6 2 5 6 8 7 10 5 2 1 2 2 3 3 5 10 14 11 8
21 18 16 15 14 13 7 5 7 7 6 4 4 6 6 5 5 6 8 8 9 9 8 7 4 2 3 3 5 7 6 6 2 1 3 5 2 3 6 7 5 8 10 8
23 20 16 15 14 12 11 8 7 9 9 9 6 8 7 6 5 5 7 6 6 10 4 3 3 3 3 3 3 7 8 7 4 2 2 2 4 7 7 6 8 9 7 6
24 21 19 16 14 13 11 10 9 8 12 15 12 11 11 10 9 7 7 8 8 8 5 3 3 3 4 3 4 5 7 6 6 5 4 4 11 10 7 3 8 7 6 4
26 21 18 16 16 15 13 13 12 10 8 13 16 18 16 14 13 11 8 8 9 8 8 4 4 4 6 5 7 5 7 6 5 6 5 4 11 13 8 7 4 4 3 5
29 26 22 21 22 18 17 15 17 17 16 11 14 20 23 20 19 16 13 10 8 9 8 6 4 4 4 6 3 11 6 9 4 7 4 5 10 11 12 13 5 3 3 4
29 28 25 23 21 20 19 18 19 21 23 20 17 17 23 27 23 20 18 15 11 10 10 7 6 7 8 6 9 9 10 10 10 6 8 11 12 12 8 11 10 7 4 3
28 29 27 25 23 22 21 20 22 23 27 29 24 18 23 28 28 25 19 16 17 12 11 11 10 8 7 10 11 11 13 12 11 16 13 11 12 13 11 10 12 13 9 5
26 27 25 24 23 23 24 24 26 27 24 28 25 23 19 25 28 26 23 21 19 16 14 12 12 13 12 16 17 18 15 18 19 14 13 17 17 15 16 17 15 21 13 11
29 24 22 22 23 24 25 28 27 24 22 23 17 14 17 22 23 25 25 22 20 21 20 18 19 16 16 12 15 12 9 8 10 12 11 12 12 13 14 20 23 17 16 15
33 21 20 20 21 25 27 26 22 16 12 11 6 9 10 18 20 23 25 25 24 20 21 22 21 18 19 27 32 22 20 22 22 22 19 18 18 18 16 15 16 16 17 17
29 17 18 17 20 24 21 11 6 8 4 7 3 4 9 16 23 23 26 24 22 19 22 22 21 22 24 25 25 21 20 18 22 20 19 22 24 23 22 20 19 17 18 19
26 14 15 14 15 5 1 3 4 2 4 4 6 6 3 21 17 26 23 21 18 17 19 22 17 22 20 16 18 17 16 15 17 16 19 19 18 21 20 18 20 20 20 21
20 12 11 10 7 6 1 2 3 4 10 14 8 6 7 19 16 26 13 17 15 7 13 14 20 31 30 28 27 25 21 21 22 22 20 17 17 21 21 21 22 23 22 19
15 11 10 9 10 7 2 3 4 5 5 7 10 12 8 9 16 20 14 7 6 6 8 8 7 15 12 12 16 19 20 20 20 20 18 17 17 20 24 26 25 29 27 25
12 10 7 7 12 8 6 5 5 7 5 5 5 6 8 5 6 5 6 5 5 5 6 6 6 9 5 6 6 9 11 13 13 13 16 19 21 19 20 21 25 27 26 27
12 9 6 5 9 11 8 8 7 5 5 4 6 5 3 7 7 5 5 5 6 4 6 6 8 8 7 3 4 5 6 9 14 17 19 18 13 14 16 16 17 21 24 26
13 8 8 9 7 8 12 13 14 11 7 5 6 6 5 5 7 5 3 5 4 4 5 5 10 6 2 3 3 3 4 9 9 7 6 7 11 12 13 11 10 13 16 19
9 8 7 12 12 11 8 12 13 11 10 10 8 7 7 5 5 4 4 4 4 5 4 4 5 2 3 1 4 3 4 9 11 10 7 7 10 11 11 11 9 9 11 14
8 8 8 6 7 11 13 11 13 15 13 11 9 10 5 9 5 6 7 4 5 4 3 4 1 3 4 4 3 2 1 3 6 8 10 11 7 2 4 8 9 9 11 13
9 9 14 17 12 8 8 15 16 14 13 12 8 7 8 6 7 8 8 7 8 7 11 12 10 10 10 9 8 7 7 7 9 11 11 12 12 8 7 5 5 4 4 3
Wind_Direction
357 355 360 4 3 1 11 20 39 66 59 61 71 69 79 76 83 94 93 128 112 150 148 131 105 130 143 152 135 143 134 126 142 182 198 198 205 210 200 200 203 192 119 101
359 357 360 6 3 5 11 6 24 64 83 66 66 65 70 70 71 102 117 136 124 127 134 120 134 130 146 163 171 173 157 139 119 178 230 218 216 213 210 214 177 202 196 138
359 358 3 3 3 9 14 10 9 64 88 69 68 75 65 84 79 78 104 115 154 158 132 132 160 147 165 183 181 177 174 159 158 170 148 205 209 220 216 215 211 197 211 134
353 357 5 2 3 12 18 30 54 78 80 76 75 82 79 99 106 99 98 120 151 176 206 206 184 187 168 183 184 178 171 156 159 174 202 189 215 217 217 219 222 210 229 183
347 351 0 6 3 8 14 44 70 70 78 79 76 83 105 104 104 113 128 136 131 120 131 185 191 188 195 192 197 191 179 158 163 280 241 234 239 227 218 222 229 233 236 234
333 341 351 6 4 359 358 7 127 108 67 71 84 90 92 98 97 100 138 157 150 286 185 126 147 172 200 213 212 218 220 220 262 277 288 303 285 253 238 233 233 231 227 180
325 328 339 350 5 357 340 291 273 194 181 173 117 103 104 103 87 129 137 126 135 126 136 131 133 153 151 182 186 192 221 224 231 264 308 239 203 263 214 212 224 223 217 210
322 321 324 334 346 1 349 300 260 256 231 229 201 161 151 141 122 116 126 121 126 139 133 111 114 149 73 104 151 167 168 193 198 249 246 285 203 136 156 133 127 162 166 189
319 312 316 319 326 338 353 343 279 253 253 245 242 211 206 198 177 156 156 155 153 148 132 139 174 196 174 195 198 199 202 227 212 219 266 224 185 165 152 149 156 176 193 215
321 310 307 310 309 313 322 329 339 280 254 249 247 232 225 218 202 200 195 196 196 205 220 223 192 187 185 176 200 211 194 222 225 232 266 271 182 184 184 213 175 159 189 225
320 309 300 301 307 301 300 304 308 311 299 255 245 242 238 230 219 208 206 202 214 214 222 222 212 194 209 212 216 224 206 198 206 206 233 265 194 203 207 212 187 193 251 282
317 307 301 297 292 292 292 294 296 297 294 288 261 240 239 240 227 217 213 209 205 206 206 214 210 207 223 218 225 221 219 210 205 205 222 171 181 207 225 234 180 208 268 311
312 305 298 295 298 294 288 292 292 293 292 291 272 250 229 233 233 230 221 215 207 221 213 203 224 224 219 222 234 226 236 231 230 236 225 217 237 254 235 237 212 222 225 300
307 300 298 293 293 294 292 286 290 292 295 291 284 257 229 229 228 227 221 213 213 216 223 220 222 229 250 243 241 240 237 238 245 250 238 235 240 249 258 248 240 230 231 260
296 293 294 291 289 292 292 294 293 293 284 275 277 278 242 224 226 225 213 212 214 225 232 233 235 242 260 263 261 255 253 257 251 259 274 249 250 243 248 247 244 234 237 252
286 283 287 289 288 291 296 297 289 289 282 274 278 248 233 226 221 217 208 214 216 221 232 236 242 252 258 264 257 260 255 269 257 253 257 269 245 240 256 252 253 259 245 254
281 272 281 285 288 295 297 295 293 284 275 249 262 234 240 208 202 199 204 209 219 226 236 243 249 250 252 259 260 265 274 276 265 263 255 249 256 261 262 257 243 243 247 249
270 261 277 282 294 302 305 299 264 293 220 193 246 240 207 190 194 198 207 216 212 223 234 243 250 253 255 261 271 281 271 270 266 259 258 262 261 260 259 252 250 254 249 250
257 250 272 281 299 297 25 72 42 23 184 216 247 268 233 190 198 197 208 222 227 232 236 244 250 249 236 256 267 274 277 278 256 262 270 269 255 262 259 250 239 250 257 255
237 243 257 277 241 240 213 30 339 242 231 235 269 294 301 193 200 187 190 195 208 220 244 249 251 255 257 257 264 261 270 278 271 270 267 267 264 255 253 250 238 244 245 255
229 236 240 252 226 227 254 266 246 223 240 247 270 278 278 218 180 190 189 182 205 222 231 214 245 262 277 258 255 258 263 267 269 258 256 257 264 259 260 259 251 241 240 243
228 220 232 243 216 220 224 232 225 232 237 241 289 267 244 171 132 157 169 198 224 236 211 224 250 284 288 268 248 252 263 273 276 268 263 265 266 262 270 267 255 248 242 237
215 194 209 213 212 217 217 210 209 219 224 232 233 199 199 199 227 214 205 214 226 228 219 232 255 281 293 278 265 264 281 292 292 282 274 270 260 269 282 282 258 244 240 238
190 194 217 215 210 216 211 213 219 227 225 272 182 213 220 164 190 199 221 222 233 247 232 247 276 284 255 269 320 337 358 351 353 341 304 271 260 271 274 286 262 242 238 236
169 201 221 233 223 210 211 219 226 214 225 235 233 214 223 217 216 208 219 235 242 235 236 254 286 256 283 252 150 115 60 46 44 26 2 313 278 273 258 266 257 250 245 240
201 224 229 235 236 232 230 219 221 229 240 243 244 224 213 213 215 206 216 213 219 243 308 345 275 250 243 234 238 230 286 1 17 27 31 32 16 331 264 245 234 253 247 241
219 243 239 243 248 258 243 228 234 239 232 228 225 211 207 205 219 210 212 227 243 288 303 311 305 268 257 253 246 251 277 308 328 337 349 352 1 19 33 24 217 240 232 257